Meteo orario Alikonovka

Oggi, 20 Ottobre, Martedi

Tempo Temperatura Precipitazioni Vento Pressione Umidità
00:00 +11°C° 0 mm 4 m/s 692 mm Hg 88%
01:00 +11°C° 0 mm 4 m/s 692 mm Hg 86%
02:00 +10°C° 0 mm 4 m/s 693 mm Hg 85%
03:00 +10°C° 0 mm 4 m/s 693 mm Hg 83%
04:00 +10°C° 0 mm 4 m/s 693 mm Hg 85%
05:00 +9°C° 0 mm 3 m/s 693 mm Hg 88%
06:00 +9°C° 0 mm 2 m/s 694 mm Hg 90%
07:00 +9°C° 0 mm 2 m/s 694 mm Hg 89%
08:00 +10°C° 0 mm 2 m/s 694 mm Hg 87%
09:00 +10°C° 0 mm 2 m/s 694 mm Hg 86%
10:00 +11°C° 0 mm 1 m/s 694 mm Hg 85%
11:00 +11°C° 0 mm 1 m/s 694 mm Hg 83%
12:00 +11°C° 0 mm 1 m/s 694 mm Hg 82%
13:00 +12°C° 0 mm 1 m/s 694 mm Hg 82%
14:00 +12°C° 0 mm 1 m/s 693 mm Hg 81%
15:00 +12°C° 0 mm 1 m/s 693 mm Hg 80%
16:00 +12°C° 0 mm 1 m/s 694 mm Hg 82%
17:00 +11°C° 0 mm 1 m/s 694 mm Hg 83%
18:00 +11°C° 0 mm 1 m/s 694 mm Hg 84%
19:00 +11°C° 0 mm 1 m/s 694 mm Hg 85%
20:00 +11°C° 0 mm 1 m/s 694 mm Hg 85%
21:00 +10°C° 0 mm 1 m/s 695 mm Hg 86%
22:00 +10°C° 0 mm 1 m/s 695 mm Hg 86%
23:00 +10°C° 0 mm 1 m/s 695 mm Hg 87%

Domani, 21 Ottobre, Mercoledi

Tempo Temperatura Precipitazioni Vento Pressione Umidità
00:00 +9°C° 0 mm 0 m/s 695 mm Hg 88%
01:00 +9°C° 0 mm 1 m/s 695 mm Hg 88%
02:00 +9°C° 0 mm 1 m/s 695 mm Hg 89%
03:00 +9°C° 0 mm 1 m/s 695 mm Hg 89%
04:00 +8°C° 0 mm 1 m/s 695 mm Hg 87%
05:00 +8°C° 0 mm 1 m/s 696 mm Hg 86%
06:00 +8°C° 0 mm 1 m/s 696 mm Hg 84%
07:00 +9°C° 0 mm 1 m/s 696 mm Hg 80%
08:00 +9°C° 0 mm 0 m/s 696 mm Hg 75%
09:00 +9°C° 0 mm 0 m/s 697 mm Hg 71%
10:00 +12°C° 0 mm 1 m/s 697 mm Hg 65%
11:00 +13°C° 0 mm 1 m/s 697 mm Hg 59%
12:00 +14°C° 0 mm 2 m/s 697 mm Hg 52%
13:00 +14°C° 0 mm 2 m/s 696 mm Hg 50%
14:00 +14°C° 0 mm 2 m/s 696 mm Hg 48%
15:00 +15°C° 0 mm 2 m/s 696 mm Hg 46%
16:00 +13°C° 0 mm 2 m/s 696 mm Hg 53%
17:00 +11°C° 0 mm 1 m/s 695 mm Hg 60%
18:00 +9°C° 0 mm 1 m/s 695 mm Hg 66%
19:00 +9°C° 0 mm 1 m/s 695 mm Hg 64%
20:00 +9°C° 0 mm 1 m/s 695 mm Hg 61%
21:00 +8°C° 0 mm 2 m/s 695 mm Hg 59%
22:00 +9°C° 0 mm 1 m/s 694 mm Hg 55%
23:00 +9°C° 0 mm 1 m/s 694 mm Hg 52%

Dopodomani, 22 Ottobre, Giovedi

Tempo Temperatura Precipitazioni Vento Pressione Umidità
00:00 +9°C° 0 mm 1 m/s 694 mm Hg 49%
01:00 +9°C° 0 mm 1 m/s 694 mm Hg 48%
02:00 +9°C° 0 mm 1 m/s 694 mm Hg 47%
03:00 +9°C° 0 mm 1 m/s 694 mm Hg 46%
04:00 +9°C° 0 mm 1 m/s 694 mm Hg 44%
05:00 +9°C° 0 mm 1 m/s 694 mm Hg 42%
06:00 +10°C° 0 mm 1 m/s 694 mm Hg 40%
07:00 +11°C° 0 mm 1 m/s 694 mm Hg 39%
08:00 +13°C° 0 mm 1 m/s 694 mm Hg 38%
09:00 +14°C° 0 mm 1 m/s 694 mm Hg 36%
10:00 +15°C° 0 mm 2 m/s 694 mm Hg 34%
11:00 +16°C° 0 mm 2 m/s 694 mm Hg 32%
12:00 +18°C° 0 mm 3 m/s 694 mm Hg 30%
13:00 +17°C° 0 mm 2 m/s 694 mm Hg 32%
14:00 +17°C° 0 mm 2 m/s 694 mm Hg 34%
15:00 +17°C° 0 mm 2 m/s 694 mm Hg 36%
16:00 +15°C° 0 mm 1 m/s 694 mm Hg 45%
17:00 +13°C° 0 mm 1 m/s 693 mm Hg 55%
18:00 +9°C° 0 mm 0 m/s 693 mm Hg 64%
19:00 +9°C° 0 mm 0 m/s 693 mm Hg 65%
20:00 +9°C° 0 mm 0 m/s 693 mm Hg 66%
21:00 +9°C° 0 mm 1 m/s 693 mm Hg 67%
22:00 +9°C° 0 mm 1 m/s 693 mm Hg 66%
23:00 +9°C° 0 mm 1 m/s 693 mm Hg 64%

23 Ottobre, Venerdi

Tempo Temperatura Precipitazioni Vento Pressione Umidità
00:00 +9°C° 0 mm 1 m/s 693 mm Hg 63%
01:00 +9°C° 0 mm 1 m/s 693 mm Hg 62%
02:00 +9°C° 0 mm 1 m/s 693 mm Hg 62%
03:00 +9°C° 0 mm 1 m/s 693 mm Hg 61%
04:00 +9°C° 0 mm 1 m/s 693 mm Hg 61%
05:00 +9°C° 0 mm 1 m/s 694 mm Hg 61%
06:00 +9°C° 0 mm 1 m/s 694 mm Hg 61%
07:00 +11°C° 0 mm 1 m/s 694 mm Hg 54%
08:00 +13°C° 0 mm 1 m/s 694 mm Hg 47%
09:00 +14°C° 0 mm 0 m/s 695 mm Hg 40%
10:00 +16°C° 0 mm 1 m/s 695 mm Hg 36%
11:00 +18°C° 0 mm 1 m/s 695 mm Hg 33%
12:00 +18°C° 0 mm 2 m/s 695 mm Hg 29%
13:00 +18°C° 0 mm 2 m/s 695 mm Hg 30%
14:00 +19°C° 0 mm 2 m/s 694 mm Hg 31%
15:00 +19°C° 0 mm 2 m/s 694 mm Hg 32%
16:00 +17°C° 0 mm 2 m/s 694 mm Hg 39%
17:00 +14°C° 0 mm 2 m/s 693 mm Hg 45%
18:00 +12°C° 0 mm 2 m/s 693 mm Hg 52%
19:00 +12°C° 0 mm 2 m/s 693 mm Hg 51%
20:00 +12°C° 0 mm 2 m/s 693 mm Hg 49%
21:00 +12°C° 0 mm 2 m/s 693 mm Hg 48%
22:00 +12°C° 0 mm 2 m/s 693 mm Hg 45%
23:00 +12°C° 0 mm 2 m/s 692 mm Hg 43%

24 Ottobre, Sabato

Tempo Temperatura Precipitazioni Vento Pressione Umidità
00:00 +13°C° 0 mm 2 m/s 692 mm Hg 40%
01:00 +13°C° 0 mm 2 m/s 692 mm Hg 38%
02:00 +13°C° 0 mm 2 m/s 691 mm Hg 36%
03:00 +13°C° 0 mm 2 m/s 691 mm Hg 34%
04:00 +13°C° 0 mm 2 m/s 691 mm Hg 34%
05:00 +13°C° 0 mm 1 m/s 691 mm Hg 34%
06:00 +13°C° 0 mm 1 m/s 691 mm Hg 34%
07:00 +15°C° 0 mm 1 m/s 691 mm Hg 32%
08:00 +18°C° 0 mm 1 m/s 692 mm Hg 30%
09:00 +20°C° 0 mm 1 m/s 692 mm Hg 29%
10:00 +21°C° 0 mm 1 m/s 692 mm Hg 27%
11:00 +21°C° 0 mm 2 m/s 692 mm Hg 26%
12:00 +23°C° 0 mm 2 m/s 692 mm Hg 24%
13:00 +23°C° 0 mm 2 m/s 691 mm Hg 25%
14:00 +23°C° 0 mm 2 m/s 691 mm Hg 26%
15:00 +23°C° 0 mm 2 m/s 691 mm Hg 27%
16:00 +19°C° 0 mm 2 m/s 690 mm Hg 32%
17:00 +18°C° 0 mm 1 m/s 690 mm Hg 37%
18:00 +15°C° 0 mm 1 m/s 690 mm Hg 41%
19:00 +14°C° 0 mm 1 m/s 690 mm Hg 43%
20:00 +14°C° 0 mm 1 m/s 690 mm Hg 44%
21:00 +14°C° 0 mm 1 m/s 689 mm Hg 46%
22:00 +14°C° 0 mm 1 m/s 689 mm Hg 46%
23:00 +14°C° 0 mm 1 m/s 689 mm Hg 46%

25 Ottobre, Domenica

Tempo Temperatura Precipitazioni Vento Pressione Umidità
00:00 +14°C° 0 mm 1 m/s 689 mm Hg 46%
01:00 +14°C° 0 mm 1 m/s 689 mm Hg 45%
02:00 +14°C° 0 mm 1 m/s 689 mm Hg 45%
03:00 +13°C° 0 mm 1 m/s 689 mm Hg 45%
04:00 +13°C° 0 mm 2 m/s 689 mm Hg 44%
05:00 +13°C° 0 mm 2 m/s 689 mm Hg 43%
06:00 +13°C° 0 mm 2 m/s 689 mm Hg 42%
07:00 +15°C° 0 mm 1 m/s 689 mm Hg 39%
08:00 +16°C° 0 mm 1 m/s 690 mm Hg 36%
09:00 +19°C° 0 mm 1 m/s 690 mm Hg 32%
10:00 +19°C° 0 mm 2 m/s 690 mm Hg 31%
11:00 +20°C° 0 mm 2 m/s 690 mm Hg 30%
12:00 +21°C° 0 mm 3 m/s 690 mm Hg 28%
13:00 +20°C° 0 mm 3 m/s 690 mm Hg 31%
14:00 +20°C° 0 mm 3 m/s 690 mm Hg 34%
15:00 +19°C° 0 mm 3 m/s 689 mm Hg 37%
16:00 +17°C° 0 mm 2 m/s 689 mm Hg 44%
17:00 +16°C° 0 mm 1 m/s 689 mm Hg 51%
18:00 +14°C° 0 mm 1 m/s 689 mm Hg 59%
19:00 +13°C° 0 mm 1 m/s 689 mm Hg 64%
20:00 +13°C° 0 mm 1 m/s 689 mm Hg 69%
21:00 +12°C° 0 mm 1 m/s 690 mm Hg 75%
22:00 +12°C° 0 mm 1 m/s 690 mm Hg 78%
23:00 +12°C° 0 mm 1 m/s 690 mm Hg 81%

26 Ottobre, Lunedi

Tempo Temperatura Precipitazioni Vento Pressione Umidità
00:00 +12°C° 0 mm 1 m/s 690 mm Hg 85%
01:00 +11°C° 0 mm 1 m/s 690 mm Hg 86%
02:00 +11°C° 0 mm 1 m/s 690 mm Hg 86%
03:00 +11°C° 0 mm 1 m/s 690 mm Hg 87%
04:00 +11°C° 0 mm 1 m/s 690 mm Hg 89%
05:00 +10°C° 0 mm 1 m/s 690 mm Hg 91%
06:00 +10°C° 0 mm 1 m/s 690 mm Hg 92%
07:00 +10°C° 0 mm 1 m/s 690 mm Hg 90%
08:00 +10°C° 0 mm 1 m/s 691 mm Hg 87%
09:00 +11°C° 0 mm 1 m/s 691 mm Hg 84%
10:00 +10°C° 0 mm 2 m/s 691 mm Hg 83%
11:00 +10°C° 0 mm 2 m/s 691 mm Hg 82%
12:00 +10°C° 0 mm 2 m/s 691 mm Hg 81%
13:00 +10°C° 0 mm 2 m/s 690 mm Hg 78%
14:00 +10°C° 0 mm 2 m/s 690 mm Hg 76%
15:00 +10°C° 0 mm 2 m/s 690 mm Hg 73%
16:00 +9°C° 0 mm 2 m/s 691 mm Hg 74%
17:00 +9°C° 0 mm 2 m/s 691 mm Hg 74%
18:00 +9°C° 0 mm 1 m/s 691 mm Hg 74%
19:00 +9°C° 0 mm 1 m/s 691 mm Hg 76%
20:00 +8°C° 0 mm 1 m/s 691 mm Hg 78%
21:00 +7°C° 0 mm 1 m/s 691 mm Hg 80%
22:00 +6°C° 0 mm 1 m/s 691 mm Hg 80%
23:00 +6°C° 0 mm 1 m/s 691 mm Hg 80%
Mostrare altro

Abbiamo bisogno del tuo consenso

Meteoprog e i nostri fornitori di servizi possono memorizzare e accedere a dati personali come cookie, identificatori di dispositivi o altre tecnologie simili sul tuo dispositivo e possono elaborare tali dati per personalizzare i contenuti e gli annunci, nonché fornire funzionalità dei social media e analizzarne il traffico.

  • Archiviare e/o accedere alle informazioni sul tuo dispositivo

    Cookie, identificatori di dispositivi o altre informazioni possono essere memorizzati o resi accessibili sul tuo dispositivo per le finalità sopra indicate.

  • Annunci e contenuti personalizzati, misurazione di annunci e contenuti, approfondimenti sul pubblico e sviluppo di prodotti

    Gli annunci e i contenuti possono essere personalizzati in base a un profilo. È possibile aggiungere più dati per personalizzare meglio annunci e contenuti. È possibile misurare il rendimento degli annunci e dei contenuti. È possibile ricavare informazioni sul pubblico che ha visto gli annunci e i contenuti. Tali dati possono essere utilizzati per sviluppare o migliorare l'esperienza, i sistemi e il software dell'utente.

Cliccando su “Accetto”, acconsenti all'uso di cookie, identificatori di dispositivo, web beacon o altre tecnologie simili. Puoi modificare le impostazioni nel browser del tuo dispositivo.

Per determinati scopi, è possibile fare affidamento su interessi legali, piuttosto che sul consenso. Puoi approfondire questo argomento consultando la nostra Informativa sulla privacy e sui cookie.